Weather History for KMBS - July, 2013

Change the Weather History Date:

Monday, July 8, 2013

  Actual Average Record
Temperature  
Mean Temperature 76 °F 71 °F  
Max Temperature 81 °F 82 °F 95 °F (2007)
Min Temperature 70 °F 60 °F 54 °F (1999)
Degree Days  
Heating Degree Days 0    
Month to date heating degree days 1  
Since 1 June heating degree days 54  
Since 1 July heating degree days 1  
Cooling Degree Days 11    
Month to date cooling degree days 57  
Year to date cooling degree days 270  
Since 1 June cooling degree days 196  
Growing Degree Days 26 (Base 50)    
Moisture  
Dew Point 69 °F    
Average Humidity 81    
Maximum Humidity 93    
Minimum Humidity 69    
Precipitation  
Precipitation 0.04 in 0.08 in 1.00 in (1997)
Month to date precipitation 0.18 0.68  
Year to date precipitation 21.07 15.31  
Snow  
Snow 0.00 in - - ()
Month to date snowfall 0.0  
Since 1 June snowfall 0.0  
Since 1 July snowfall 0.0  
Snow Depth 0.00 in    
Sea Level Pressure  
Sea Level Pressure 29.98 in    
Wind  
Wind Speed 7 mph (SSW)    
Max Wind Speed 18 mph    
Max Gust Speed 25 mph    
Visibility 7 miles    
Events Rain    
T = Trace of Precipitation, MM = Missing Value Source: NWS Daily Summary

Daily Weather History Graph

Daily Weather History Graph

Search for Another Location

Airport or City:

Trip Planner

Search our weather history database for the weather conditions in past years. The results will help you decide how hot, cold, wet, or windy it might be!

Date:

Astronomy

Jul. 08, 2013 Rise Set
Actual Time 6:03 AM EDT 9:18 PM EDT
Civil Twilight 5:28 AM EDT 9:54 PM EDT
Nautical Twilight 4:42 AM EDT 10:39 PM EDT
Astronomical Twilight 3:47 AM EDT 11:34 PM EDT
Moon 6:34 AM EDT (7/8) 9:17 PM EDT (7/8)
Length of Visible Light 16h 25m
Length of Day
15h 15m
New Moon, 0% of the Moon is Illuminated
Jul 8
New Moon
Jul 15
First Quarter
Jul 22
Full
Jul 29
Last Quarter
Aug 6
New

Hourly Weather History & Observations

Time (EDT) Temp. Heat Index Dew Point Humidity Pressure Visibility Wind Dir Wind Speed Gust Speed Precip Events Conditions
12:53 AM 72.0 °F - 68.0 °F 87% 30.00 in 7.0 mi SSW 4.6 mph - N/A   Clear
1:53 AM 72.0 °F - 68.0 °F 87% 29.99 in 8.0 mi SSW 4.6 mph - N/A   Mostly Cloudy
2:53 AM 72.0 °F - 68.0 °F 87% 30.00 in 7.0 mi SW 8.1 mph - N/A   Overcast
3:53 AM 72.0 °F - 68.0 °F 87% 29.99 in 6.0 mi SSW 4.6 mph - N/A   Overcast
4:53 AM 71.1 °F - 68.0 °F 90% 29.99 in 6.0 mi SSW 5.8 mph - N/A   Overcast
5:53 AM 71.1 °F - 68.0 °F 90% 29.99 in 5.0 mi SSW 5.8 mph - N/A   Partly Cloudy
6:53 AM 72.0 °F - 69.1 °F 91% 29.99 in 5.0 mi SSW 5.8 mph - 0.00 in   Mostly Cloudy
7:53 AM 73.0 °F - 69.1 °F 87% 29.99 in 6.0 mi SSW 9.2 mph - 0.00 in   Mostly Cloudy
8:53 AM 73.9 °F - 70.0 °F 87% 29.99 in 6.0 mi South 10.4 mph - N/A   Scattered Clouds
9:53 AM 75.9 °F - 71.1 °F 85% 29.99 in 8.0 mi SSW 8.1 mph - N/A   Clear
10:53 AM 78.1 °F - 71.1 °F 79% 29.98 in 9.0 mi SSW 9.2 mph - N/A   Scattered Clouds
11:53 AM 80.1 °F 83.8 °F 72.0 °F 76% 29.99 in 9.0 mi SW 9.2 mph - N/A   Clear
12:53 PM 80.1 °F 83.8 °F 72.0 °F 76% 29.99 in 8.0 mi WSW 12.7 mph - N/A   Mostly Cloudy
1:53 PM 80.1 °F 83.2 °F 70.0 °F 71% 29.99 in 9.0 mi West 13.8 mph - N/A   Mostly Cloudy
2:53 PM 78.1 °F - 68.0 °F 71% 29.98 in 10.0 mi West 15.0 mph - N/A   Mostly Cloudy
3:53 PM 77.0 °F - 68.0 °F 74% 29.96 in 10.0 mi SW 10.4 mph - 0.00 in Rain Light Rain
4:53 PM 73.0 °F - 69.1 °F 87% 29.98 in 4.0 mi SW 12.7 mph - 0.00 in Rain Light Rain
5:16 PM 73.4 °F - 69.8 °F 88% 29.98 in 2.0 mi SSW 8.1 mph - 0.01 in Rain Light Rain
5:49 PM 73.4 °F - 69.8 °F 88% 29.97 in 5.0 mi South 6.9 mph - 0.03 in Rain Light Rain
5:53 PM 73.0 °F - 69.1 °F 87% 29.96 in 5.0 mi South 6.9 mph - 0.03 in Rain Light Rain
6:53 PM 73.0 °F - 70.0 °F 90% 29.96 in 8.0 mi South 6.9 mph - 0.01 in   Overcast
7:53 PM 75.0 °F - 71.1 °F 87% 29.96 in 8.0 mi South 6.9 mph - N/A   Overcast
8:53 PM 75.0 °F - 70.0 °F 84% 29.96 in 7.0 mi WSW 4.6 mph - N/A   Overcast
10:53 PM 72.0 °F - 70.0 °F 93% 29.97 in 7.0 mi Calm Calm - N/A   Mostly Cloudy
11:53 PM 72.0 °F - 69.1 °F 91% 29.98 in 7.0 mi South 3.5 mph - N/A   Mostly Cloudy